sat.trackr.live / text

‹ back to catalog

ICEYE-X62

NORAD 66755 · 2025-276CT

PAYLOAD ACTIVE UNKNOWN

§ Identity

Operator
Country
POL
Launch date
2025-11-28
Launch site
AFWTR
Launch vehicle
Mass (kg)
RCS (m²)

External: N2YO · Heavens-Above · Gunter

§ Orbital elements

Epoch: 2026-05-25T04:49:13.464192Z

Period
95.37 min
Inclination
97.4208°
Eccentricity
0.0003955
Mean motion
15.09917470 rev/d
Perigee alt
533.7 km
Apogee alt
539.2 km
Semi-major
6,914.6 km
B*
1.2472e-4
RAAN
218.1303°
Arg perigee
87.8914°
Mean anomaly
272.2768°
Rev number
2,686

§ Raw data

ICEYE-X621 66755U 25276CT  26145.20085028  .00001960  00000+0  12472-3 0  99982 66755  97.4208 218.1303 0003955  87.8914 272.2768 15.09917470 26867

JSON: /api/v1/satellites/66755 · /tle

For live sub-satellite position, see the globe view (requires WebGL).

§ Visibility from observer

Set your observer location to see the next 7 days of passes ≥ 10°. The values pass through the URL so the page stays shareable.

No JS? Fill the form by hand. The geolocation button needs JavaScript.

§ Radio — SatNOGS DB

ModeDescriptionDownlinkUplink
FM S-band telemetry 2.270 GHz

1 transmitter · refreshed weekly from db.satnogs.org